Time,TemperatureF,DewpointF,PressureIn,WindDirection,WindDirectionDegrees,WindSpeedMPH,WindSpeedGustMPH,Humidity,HourlyPrecipIn,Conditions,Clouds,dailyrainin,SoftwareType,DateUTC
2013-03-21 00:00:00,23.8,18.2,29.66,NNW,336,6.0,18.0,79,0.00,,,0.00,VWS V14.00,2013-03-21 04:00:00,
2013-03-21 00:06:00,23.6,18.1,29.66,North,7,6.3,18.0,79,0.00,,,0.00,VWS V14.00,2013-03-21 04:06:00,
2013-03-21 00:09:00,23.5,18.0,29.66,North,6,5.5,18.0,79,0.00,,,0.00,VWS V14.00,2013-03-21 04:09:00,
2013-03-21 00:12:00,23.5,18.1,29.66,North,1,5.5,18.0,80,0.00,,,0.00,VWS V14.00,2013-03-21 04:12:00,
2013-03-21 00:19:00,23.4,18.1,29.66,North,4,3.2,18.0,80,0.00,,,0.00,VWS V14.00,2013-03-21 04:19:00,
2013-03-21 00:25:00,23.2,18.0,29.66,NW,326,0.0,18.0,80,0.00,,,0.00,VWS V14.00,2013-03-21 04:25:00,
2013-03-21 00:31:00,23.3,18.2,29.66,NW,326,0.0,18.0,80,0.00,,,0.00,VWS V14.00,2013-03-21 04:31:00,
2013-03-21 00:37:00,23.2,18.1,29.66,NW,326,0.0,18.0,80,0.00,,,0.00,VWS V14.00,2013-03-21 04:37:00,
2013-03-21 00:43:00,23.0,18.0,29.66,NW,326,0.0,18.0,81,0.00,,,0.00,VWS V14.00,2013-03-21 04:43:00,
2013-03-21 00:49:00,22.9,18.0,29.66,North,352,0.0,5.7,81,0.00,,,0.00,VWS V14.00,2013-03-21 04:49:00,
2013-03-21 00:55:00,22.8,18.0,29.66,North,350,0.0,5.7,82,0.00,,,0.00,VWS V14.00,2013-03-21 04:55:00,
2013-03-21 01:01:00,22.7,18.1,29.66,North,350,0.0,5.7,82,0.00,,,0.00,VWS V14.00,2013-03-21 05:01:00,
2013-03-21 01:07:00,22.6,18.1,29.66,North,350,0.0,5.7,82,0.00,,,0.00,VWS V14.00,2013-03-21 05:07:00,
2013-03-21 01:13:00,22.5,18.1,29.66,North,350,0.0,5.7,83,0.00,,,0.00,VWS V14.00,2013-03-21 05:13:00,
2013-03-21 01:19:00,22.4,18.1,29.66,North,350,0.0,5.7,83,0.00,,,0.00,VWS V14.00,2013-03-21 05:19:00,
2013-03-21 01:25:00,22.6,18.5,29.66,North,350,0.0,5.7,84,0.00,,,0.00,VWS V14.00,2013-03-21 05:25:00,
2013-03-21 01:31:00,22.6,18.6,29.67,North,350,0.0,5.7,84,0.00,,,0.00,VWS V14.00,2013-03-21 05:31:00,
2013-03-21 01:38:00,22.6,18.6,29.66,North,1,0.0,6.6,84,0.00,,,0.00,VWS V14.00,2013-03-21 05:38:00,
2013-03-21 01:44:00,22.7,18.8,29.67,North,359,4.8,8.6,85,0.00,,,0.00,VWS V14.00,2013-03-21 05:44:00,
2013-03-21 01:50:00,22.8,19.0,29.67,NNW,340,7.7,8.7,85,0.00,,,0.00,VWS V14.00,2013-03-21 05:50:00,
2013-03-21 01:56:00,22.8,19.2,29.66,North,357,5.7,8.7,86,0.00,,,0.00,VWS V14.00,2013-03-21 05:56:00,
2013-03-21 02:02:00,22.7,19.1,29.66,North,0,5.3,8.7,86,0.00,,,0.00,VWS V14.00,2013-03-21 06:02:00,
2013-03-21 02:08:00,22.5,19.1,29.66,NNE,17,5.2,8.7,86,0.00,,,0.00,VWS V14.00,2013-03-21 06:08:00,
2013-03-21 02:14:00,22.5,19.2,29.67,North,356,6.1,8.8,87,0.00,,,0.00,VWS V14.00,2013-03-21 06:14:00,
2013-03-21 02:20:00,22.4,19.2,29.66,North,6,4.5,8.8,87,0.00,,,0.00,VWS V14.00,2013-03-21 06:20:00,
2013-03-21 02:26:00,22.2,19.1,29.66,North,4,4.2,8.8,88,0.00,,,0.00,VWS V14.00,2013-03-21 06:26:00,
2013-03-21 02:32:00,22.1,19.1,29.66,North,359,0.0,8.8,88,0.00,,,0.00,VWS V14.00,2013-03-21 06:32:00,
2013-03-21 02:38:00,22.1,19.3,29.66,North,359,0.0,8.8,89,0.00,,,0.00,VWS V14.00,2013-03-21 06:38:00,
2013-03-21 02:44:00,22.1,19.4,29.66,NNW,346,3.4,8.8,89,0.00,,,0.00,VWS V14.00,2013-03-21 06:44:00,
2013-03-21 02:50:00,21.9,19.3,29.66,NNW,347,0.0,8.8,89,0.00,,,0.00,VWS V14.00,2013-03-21 06:50:00,
2013-03-21 02:56:00,21.7,19.1,29.66,NNW,347,0.0,8.8,90,0.00,,,0.00,VWS V14.00,2013-03-21 06:56:00,
2013-03-21 03:02:00,21.7,19.2,29.66,NNW,347,0.0,8.8,90,0.00,,,0.00,VWS V14.00,2013-03-21 07:02:00,
2013-03-21 03:08:00,21.5,19.0,29.66,NNW,347,0.0,8.8,90,0.00,,,0.00,VWS V14.00,2013-03-21 07:08:00,
2013-03-21 03:14:00,21.4,19.0,29.66,NNW,347,0.0,8.8,90,0.00,,,0.00,VWS V14.00,2013-03-21 07:14:00,
2013-03-21 03:21:00,21.1,18.7,29.66,North,7,0.0,8.8,90,0.00,,,0.00,VWS V14.00,2013-03-21 07:21:00,
2013-03-21 03:27:00,20.8,18.5,29.66,North,7,0.0,8.8,90,0.00,,,0.00,VWS V14.00,2013-03-21 07:27:00,
2013-03-21 03:33:00,20.8,18.6,29.65,North,7,0.0,8.8,91,0.00,,,0.00,VWS V14.00,2013-03-21 07:33:00,
2013-03-21 03:39:00,20.6,18.5,29.65,North,7,0.0,8.8,91,0.00,,,0.00,VWS V14.00,2013-03-21 07:39:00,
2013-03-21 03:45:00,20.7,18.7,29.65,North,7,0.0,8.8,92,0.00,,,0.00,VWS V14.00,2013-03-21 07:45:00,
2013-03-21 03:51:00,20.7,18.7,29.65,North,7,0.0,8.8,92,0.00,,,0.00,VWS V14.00,2013-03-21 07:51:00,
2013-03-21 03:57:00,20.6,18.6,29.64,North,7,0.0,8.8,92,0.00,,,0.00,VWS V14.00,2013-03-21 07:57:00,
2013-03-21 04:03:00,20.5,18.5,29.64,North,7,0.0,8.8,92,0.00,,,0.00,VWS V14.00,2013-03-21 08:03:00,
2013-03-21 04:09:00,20.3,18.4,29.64,North,7,0.0,8.8,92,0.00,,,0.00,VWS V14.00,2013-03-21 08:09:00,
2013-03-21 04:15:00,20.5,18.6,29.64,North,7,0.0,8.8,92,0.00,,,0.00,VWS V14.00,2013-03-21 08:15:00,
2013-03-21 04:21:00,20.3,18.4,29.64,North,7,0.0,8.8,92,0.00,,,0.00,VWS V14.00,2013-03-21 08:21:00,
2013-03-21 04:27:00,20.2,18.4,29.64,North,7,0.0,8.8,92,0.00,,,0.00,VWS V14.00,2013-03-21 08:27:00,
2013-03-21 04:33:00,20.0,18.2,29.64,North,7,0.0,8.8,93,0.00,,,0.00,VWS V14.00,2013-03-21 08:33:00,
2013-03-21 04:39:00,20.1,18.4,29.64,North,7,0.0,8.8,93,0.00,,,0.00,VWS V14.00,2013-03-21 08:39:00,
2013-03-21 04:45:00,20.4,18.8,29.64,North,7,0.0,8.8,93,0.00,,,0.00,VWS V14.00,2013-03-21 08:45:00,
2013-03-21 04:51:00,20.6,19.0,29.64,North,7,0.0,8.8,94,0.00,,,0.00,VWS V14.00,2013-03-21 08:51:00,
2013-03-21 04:57:00,20.8,19.2,29.64,North,7,0.0,8.8,94,0.00,,,0.00,VWS V14.00,2013-03-21 08:57:00,
2013-03-21 05:03:00,21.0,19.4,29.64,North,7,0.0,8.8,93,0.00,,,0.00,VWS V14.00,2013-03-21 09:03:00,
2013-03-21 05:09:00,21.1,19.5,29.64,NNE,14,5.0,8.8,93,0.00,,,0.00,VWS V14.00,2013-03-21 09:09:00,
2013-03-21 05:15:00,21.2,19.5,29.64,NNE,14,0.0,8.8,93,0.00,,,0.00,VWS V14.00,2013-03-21 09:15:00,
2013-03-21 05:21:00,21.2,19.4,29.64,North,6,5.6,8.8,93,0.00,,,0.00,VWS V14.00,2013-03-21 09:21:00,
2013-03-21 05:27:00,21.1,19.3,29.64,North,6,0.0,8.8,93,0.00,,,0.00,VWS V14.00,2013-03-21 09:27:00,
2013-03-21 05:33:00,21.1,19.2,29.64,NNE,20,2.7,8.8,92,0.00,,,0.00,VWS V14.00,2013-03-21 09:33:00,
2013-03-21 05:40:00,21.0,19.1,29.64,NNE,25,0.0,8.8,92,0.00,,,0.00,VWS V14.00,2013-03-21 09:40:00,
2013-03-21 05:46:00,20.7,18.8,29.64,NNE,22,0.0,8.8,92,0.00,,,0.00,VWS V14.00,2013-03-21 09:46:00,
2013-03-21 05:52:00,20.7,18.9,29.64,NNE,22,0.0,8.8,92,0.00,,,0.00,VWS V14.00,2013-03-21 09:52:00,
2013-03-21 05:58:00,20.6,18.8,29.64,NNE,22,0.0,8.8,92,0.00,,,0.00,VWS V14.00,2013-03-21 09:58:00,
2013-03-21 06:04:00,20.5,18.7,29.64,NNE,22,0.0,8.8,93,0.00,,,0.00,VWS V14.00,2013-03-21 10:04:00,
2013-03-21 06:10:00,20.6,18.9,29.64,NNE,22,0.0,8.8,93,0.00,,,0.00,VWS V14.00,2013-03-21 10:10:00,
2013-03-21 06:16:00,20.7,19.0,29.64,NNE,22,0.0,8.8,93,0.00,,,0.00,VWS V14.00,2013-03-21 10:16:00,
2013-03-21 06:22:00,20.8,19.1,29.64,NNE,22,0.0,8.8,93,0.00,,,0.00,VWS V14.00,2013-03-21 10:22:00,
2013-03-21 06:28:00,20.7,19.0,29.64,NNE,22,0.0,8.8,93,0.00,,,0.00,VWS V14.00,2013-03-21 10:28:00,
2013-03-21 06:34:00,21.1,19.5,29.64,NNE,22,0.0,8.8,93,0.00,,,0.00,VWS V14.00,2013-03-21 10:34:00,
2013-03-21 06:40:00,21.1,19.4,29.64,NNE,22,0.0,8.8,93,0.00,,,0.00,VWS V14.00,2013-03-21 10:40:00,
2013-03-21 06:46:00,20.9,19.1,29.64,NNE,22,0.0,8.8,93,0.00,,,0.00,VWS V14.00,2013-03-21 10:46:00,
2013-03-21 06:52:00,21.0,19.2,29.64,NNE,22,0.0,8.8,93,0.00,,,0.00,VWS V14.00,2013-03-21 10:52:00,
2013-03-21 06:58:00,20.9,19.1,29.64,NNE,22,0.0,8.8,93,0.00,,,0.00,VWS V14.00,2013-03-21 10:58:00,
2013-03-21 07:04:00,20.8,19.0,29.64,NNE,22,0.0,8.8,93,0.00,,,0.00,VWS V14.00,2013-03-21 11:04:00,
2013-03-21 07:10:00,20.8,19.0,29.64,NNE,22,0.0,8.8,93,0.00,,,0.00,VWS V14.00,2013-03-21 11:10:00,
2013-03-21 07:16:00,20.7,19.0,29.64,NNE,25,4.3,8.8,93,0.00,,,0.00,VWS V14.00,2013-03-21 11:16:00,
2013-03-21 07:22:00,20.7,19.0,29.64,NNE,17,0.0,8.8,93,0.00,,,0.00,VWS V14.00,2013-03-21 11:22:00,
2013-03-21 07:28:00,20.7,19.0,29.64,NNE,20,0.0,8.8,93,0.00,,,0.00,VWS V14.00,2013-03-21 11:28:00,
2013-03-21 07:34:00,20.8,19.1,29.64,NNE,20,0.0,8.8,93,0.00,,,0.00,VWS V14.00,2013-03-21 11:34:00,
2013-03-21 07:40:00,20.8,19.1,29.64,NNE,20,0.0,8.8,93,0.00,,,0.00,VWS V14.00,2013-03-21 11:40:00,
2013-03-21 07:46:00,20.8,19.0,29.64,NNE,20,0.0,8.8,93,0.00,,,0.00,VWS V14.00,2013-03-21 11:46:00,
2013-03-21 07:52:00,20.9,19.1,29.64,NNE,20,0.0,8.8,93,0.00,,,0.00,VWS V14.00,2013-03-21 11:52:00,
2013-03-21 07:58:00,21.3,19.5,29.64,NNE,20,0.0,8.8,93,0.00,,,0.00,VWS V14.00,2013-03-21 11:58:00,
2013-03-21 08:04:00,21.3,19.4,29.65,NNE,20,0.0,8.8,92,0.00,,,0.00,VWS V14.00,2013-03-21 12:04:00,
2013-03-21 08:11:00,21.3,19.3,29.65,NNE,18,0.0,8.8,92,0.00,,,0.00,VWS V14.00,2013-03-21 12:11:00,
2013-03-21 08:17:00,21.6,19.5,29.65,NNE,30,0.0,8.8,92,0.00,,,0.00,VWS V14.00,2013-03-21 12:17:00,
2013-03-21 08:23:00,21.5,19.3,29.65,NNE,18,0.0,8.8,91,0.00,,,0.00,VWS V14.00,2013-03-21 12:23:00,
2013-03-21 08:29:00,21.8,19.5,29.65,NNE,18,0.0,8.8,91,0.00,,,0.00,VWS V14.00,2013-03-21 12:29:00,
2013-03-21 08:35:00,22.0,19.7,29.65,NNE,18,0.0,8.8,91,0.00,,,0.00,VWS V14.00,2013-03-21 12:35:00,
2013-03-21 08:41:00,22.0,19.5,29.65,NNE,18,0.0,8.8,90,0.00,,,0.00,VWS V14.00,2013-03-21 12:41:00,
2013-03-21 08:47:00,22.3,19.7,29.65,NNE,21,0.0,8.8,90,0.00,,,0.00,VWS V14.00,2013-03-21 12:47:00,
2013-03-21 08:53:00,22.5,19.9,29.65,NNE,21,0.0,8.8,90,0.00,,,0.00,VWS V14.00,2013-03-21 12:53:00,
2013-03-21 08:59:00,22.9,20.1,29.66,NNE,21,0.0,8.8,89,0.00,,,0.00,VWS V14.00,2013-03-21 12:59:00,
2013-03-21 09:05:00,23.2,20.2,29.66,North,10,0.0,8.8,88,0.00,,,0.00,VWS V14.00,2013-03-21 13:05:00,
2013-03-21 09:11:00,23.5,20.3,29.66,North,10,0.0,8.8,87,0.00,,,0.00,VWS V14.00,2013-03-21 13:11:00,
2013-03-21 09:17:00,23.6,20.1,29.66,North,10,0.0,8.8,86,0.00,,,0.00,VWS V14.00,2013-03-21 13:17:00,
2013-03-21 09:23:00,23.9,20.2,29.66,NNE,21,0.0,8.8,85,0.00,,,0.00,VWS V14.00,2013-03-21 13:23:00,
2013-03-21 09:29:00,24.3,20.3,29.65,NNE,21,0.0,8.8,85,0.00,,,0.00,VWS V14.00,2013-03-21 13:29:00,
2013-03-21 09:36:00,24.7,20.5,29.66,NNE,21,0.0,8.8,84,0.00,,,0.00,VWS V14.00,2013-03-21 13:36:00,
2013-03-21 09:42:00,25.1,20.5,29.66,NNE,17,0.0,8.8,82,0.00,,,0.00,VWS V14.00,2013-03-21 13:42:00,
2013-03-21 09:48:00,25.4,20.4,29.66,NNE,15,0.0,8.8,81,0.00,,,0.00,VWS V14.00,2013-03-21 13:48:00,
2013-03-21 09:54:00,25.6,20.2,29.66,NNE,15,0.0,8.8,80,0.00,,,0.00,VWS V14.00,2013-03-21 13:54:00,
2013-03-21 10:00:00,25.7,20.1,29.66,NNE,15,0.0,8.8,79,0.00,,,0.00,VWS V14.00,2013-03-21 14:00:00,
2013-03-21 10:09:00,26.5,20.6,29.65,NNE,15,0.0,8.8,78,0.00,,,0.00,VWS V14.00,2013-03-21 14:09:00,
2013-03-21 10:15:00,27.2,20.8,29.65,NNE,15,0.0,8.8,76,0.00,,,0.00,VWS V14.00,2013-03-21 14:15:00,
2013-03-21 10:21:00,28.6,22.1,29.65,NNE,15,0.0,8.8,76,0.00,,,0.00,VWS V14.00,2013-03-21 14:21:00,
2013-03-21 10:27:00,30.1,22.7,29.65,North,4,0.0,8.8,74,0.00,,,0.00,VWS V14.00,2013-03-21 14:27:00,
2013-03-21 10:33:00,31.5,22.9,29.65,North,4,0.0,8.8,70,0.00,,,0.00,VWS V14.00,2013-03-21 14:33:00,
2013-03-21 10:39:00,32.7,23.1,29.64,North,4,0.0,8.8,68,0.00,,,0.00,VWS V14.00,2013-03-21 14:39:00,
2013-03-21 10:45:00,33.2,22.7,29.64,NNE,21,0.0,8.8,65,0.00,,,0.00,VWS V14.00,2013-03-21 14:45:00,
2013-03-21 10:51:00,33.2,21.9,29.64,NNE,21,0.0,8.8,63,0.00,,,0.00,VWS V14.00,2013-03-21 14:51:00,
2013-03-21 10:58:00,33.3,21.6,29.64,North,357,0.0,8.8,62,0.00,,,0.00,VWS V14.00,2013-03-21 14:58:00,
2013-03-21 11:04:00,34.0,22.1,29.64,North,357,0.0,8.8,61,0.00,,,0.00,VWS V14.00,2013-03-21 15:04:00,
2013-03-21 11:10:00,34.4,21.8,29.64,NNE,22,0.0,8.8,60,0.00,,,0.00,VWS V14.00,2013-03-21 15:10:00,
2013-03-21 11:16:00,34.5,20.7,29.64,NNW,329,0.0,8.8,57,0.00,,,0.00,VWS V14.00,2013-03-21 15:16:00,
2013-03-21 11:22:00,34.5,20.3,29.63,NNW,329,0.0,8.8,56,0.00,,,0.00,VWS V14.00,2013-03-21 15:22:00,
2013-03-21 11:28:00,34.7,20.0,29.63,NW,314,0.0,8.8,54,0.00,,,0.00,VWS V14.00,2013-03-21 15:28:00,
2013-03-21 11:34:00,35.2,20.4,29.63,NW,314,0.0,8.8,54,0.00,,,0.00,VWS V14.00,2013-03-21 15:34:00,
2013-03-21 11:40:00,35.4,19.8,29.63,NW,321,0.0,8.8,52,0.00,,,0.00,VWS V14.00,2013-03-21 15:40:00,
2013-03-21 11:46:00,35.1,18.9,29.62,NW,321,0.0,8.8,51,0.00,,,0.00,VWS V14.00,2013-03-21 15:46:00,
2013-03-21 11:52:00,34.6,18.2,29.62,NNW,340,5.3,8.8,51,0.00,,,0.00,VWS V14.00,2013-03-21 15:52:00,
2013-03-21 11:58:00,34.5,17.9,29.61,NW,312,0.0,8.8,50,0.00,,,0.00,VWS V14.00,2013-03-21 15:58:00,
2013-03-21 12:04:00,34.6,17.8,29.61,NW,311,0.0,8.8,50,0.00,,,0.00,VWS V14.00,2013-03-21 16:04:00,
2013-03-21 12:10:00,34.9,17.7,29.61,NNW,339,0.0,8.8,49,0.00,,,0.00,VWS V14.00,2013-03-21 16:10:00,
2013-03-21 12:16:00,34.8,17.5,29.61,NNW,332,0.0,8.8,49,0.00,,,0.00,VWS V14.00,2013-03-21 16:16:00,
2013-03-21 12:22:00,35.2,17.9,29.61,NNW,335,0.0,9.7,49,0.00,,,0.00,VWS V14.00,2013-03-21 16:22:00,
2013-03-21 12:28:00,35.6,18.0,29.61,NW,319,0.0,9.7,48,0.00,,,0.00,VWS V14.00,2013-03-21 16:28:00,
2013-03-21 12:35:00,36.0,17.6,29.60,NNE,14,7.1,9.9,47,0.00,,,0.00,VWS V14.00,2013-03-21 16:35:00,
2013-03-21 12:41:00,36.6,18.2,29.60,NNW,343,6.1,9.9,47,0.00,,,0.00,VWS V14.00,2013-03-21 16:41:00,
2013-03-21 12:47:00,36.9,18.1,29.60,WNW,284,0.0,9.9,46,0.00,,,0.00,VWS V14.00,2013-03-21 16:47:00,
2013-03-21 12:53:00,37.6,18.7,29.60,NNW,339,0.0,9.9,46,0.00,,,0.00,VWS V14.00,2013-03-21 16:53:00,
2013-03-21 12:59:00,37.4,18.1,29.60,North,350,0.0,9.9,45,0.00,,,0.00,VWS V14.00,2013-03-21 16:59:00,
2013-03-21 13:05:00,37.0,17.5,29.59,NNW,332,0.0,9.9,45,0.00,,,0.00,VWS V14.00,2013-03-21 17:05:00,
2013-03-21 13:11:00,36.8,17.3,29.59,NNW,332,0.0,9.9,45,0.00,,,0.00,VWS V14.00,2013-03-21 17:11:00,
2013-03-21 13:17:00,37.4,17.8,29.59,NNW,332,0.0,9.9,45,0.00,,,0.00,VWS V14.00,2013-03-21 17:17:00,
2013-03-21 13:23:00,38.1,17.8,29.59,WNW,300,0.0,9.9,43,0.00,,,0.00,VWS V14.00,2013-03-21 17:23:00,
2013-03-21 13:29:00,37.6,16.7,29.59,North,350,0.0,9.9,42,0.00,,,0.00,VWS V14.00,2013-03-21 17:29:00,
2013-03-21 13:35:00,37.0,16.6,29.58,WNW,298,0.0,9.9,43,0.00,,,0.00,VWS V14.00,2013-03-21 17:35:00,
2013-03-21 13:41:00,36.7,16.4,29.58,WNW,298,0.0,9.9,43,0.00,,,0.00,VWS V14.00,2013-03-21 17:41:00,
2013-03-21 13:48:00,37.0,17.0,29.58,WNW,298,0.0,9.9,44,0.00,,,0.00,VWS V14.00,2013-03-21 17:48:00,
2013-03-21 13:54:00,37.4,17.3,29.58,WNW,298,0.0,9.9,44,0.00,,,0.00,VWS V14.00,2013-03-21 17:54:00,
2013-03-21 14:00:00,37.8,17.6,29.57,WNW,298,0.0,9.9,44,0.00,,,0.00,VWS V14.00,2013-03-21 18:00:00,
2013-03-21 14:06:00,38.1,17.3,29.57,WSW,246,0.0,9.9,42,0.00,,,0.00,VWS V14.00,2013-03-21 18:06:00,
2013-03-21 14:12:00,38.4,17.1,29.57,North,8,0.0,9.9,42,0.00,,,0.00,VWS V14.00,2013-03-21 18:12:00,
2013-03-21 14:18:00,38.9,17.5,29.57,North,8,0.0,9.9,42,0.00,,,0.00,VWS V14.00,2013-03-21 18:18:00,
2013-03-21 14:24:00,38.8,16.3,29.57,NW,308,0.0,9.9,40,0.00,,,0.00,VWS V14.00,2013-03-21 18:24:00,
2013-03-21 14:30:00,38.3,16.0,29.57,WNW,294,0.0,9.9,40,0.00,,,0.00,VWS V14.00,2013-03-21 18:30:00,
2013-03-21 14:36:00,38.2,15.9,29.56,WNW,301,0.0,9.9,40,0.00,,,0.00,VWS V14.00,2013-03-21 18:36:00,
2013-03-21 14:42:00,38.5,16.1,29.56,NW,321,0.0,9.9,40,0.00,,,0.00,VWS V14.00,2013-03-21 18:42:00,
2013-03-21 14:48:00,38.5,16.1,29.56,North,354,0.0,9.9,40,0.00,,,0.00,VWS V14.00,2013-03-21 18:48:00,
2013-03-21 14:54:00,39.3,17.1,29.56,North,6,0.0,9.9,40,0.00,,,0.00,VWS V14.00,2013-03-21 18:54:00,
2013-03-21 15:00:00,39.7,16.7,29.55,NW,312,0.0,9.9,39,0.00,,,0.00,VWS V14.00,2013-03-21 19:00:00,
2013-03-21 15:06:00,39.7,16.7,29.55,NW,312,0.0,9.9,39,0.00,,,0.00,VWS V14.00,2013-03-21 19:06:00,
2013-03-21 15:12:00,39.3,15.7,29.55,NW,318,0.0,9.9,38,0.00,,,0.00,VWS V14.00,2013-03-21 19:12:00,
2013-03-21 15:18:00,39.2,15.2,29.55,North,357,0.0,9.9,37,0.00,,,0.00,VWS V14.00,2013-03-21 19:18:00,
2013-03-21 15:25:00,39.4,16.1,29.55,NNW,343,0.0,9.9,38,0.00,,,0.00,VWS V14.00,2013-03-21 19:25:00,
2013-03-21 15:31:00,39.3,16.2,29.55,NNW,342,0.0,9.9,39,0.00,,,0.00,VWS V14.00,2013-03-21 19:31:00,
2013-03-21 15:37:00,39.9,16.3,29.54,North,353,0.0,9.9,38,0.00,,,0.00,VWS V14.00,2013-03-21 19:37:00,
2013-03-21 15:43:00,40.4,16.6,29.55,North,353,0.0,9.9,38,0.00,,,0.00,VWS V14.00,2013-03-21 19:43:00,
2013-03-21 15:49:00,40.2,15.6,29.54,North,353,0.0,9.9,36,0.00,,,0.00,VWS V14.00,2013-03-21 19:49:00,
2013-03-21 15:55:00,40.1,15.3,29.54,NNW,340,5.5,9.9,36,0.00,,,0.00,VWS V14.00,2013-03-21 19:55:00,
2013-03-21 16:04:00,39.0,14.3,29.54,SW,224,0.0,9.9,36,0.00,,,0.00,VWS V14.00,2013-03-21 20:04:00,
2013-03-21 16:10:00,39.4,14.9,29.54,West,278,0.0,9.9,36,0.00,,,0.00,VWS V14.00,2013-03-21 20:10:00,
2013-03-21 16:16:00,40.1,15.5,29.54,West,278,0.0,9.9,36,0.00,,,0.00,VWS V14.00,2013-03-21 20:16:00,
2013-03-21 16:22:00,40.2,15.0,29.54,WNW,297,0.0,9.9,35,0.00,,,0.00,VWS V14.00,2013-03-21 20:22:00,
2013-03-21 16:28:00,39.7,14.1,29.54,WNW,297,0.0,9.9,35,0.00,,,0.00,VWS V14.00,2013-03-21 20:28:00,
2013-03-21 16:34:00,39.7,14.0,29.54,NNW,339,0.0,9.9,34,0.00,,,0.00,VWS V14.00,2013-03-21 20:34:00,
2013-03-21 16:40:00,40.0,14.6,29.54,NNW,339,0.0,9.9,35,0.00,,,0.00,VWS V14.00,2013-03-21 20:40:00,
2013-03-21 16:46:00,39.2,13.5,29.54,NNW,339,0.0,9.9,34,0.00,,,0.00,VWS V14.00,2013-03-21 20:46:00,
2013-03-21 16:53:00,38.5,13.6,29.54,NNW,339,0.0,9.9,36,0.00,,,0.00,VWS V14.00,2013-03-21 20:53:00,
2013-03-21 16:59:00,39.4,15.4,29.53,NNW,339,0.0,9.9,37,0.00,,,0.00,VWS V14.00,2013-03-21 20:59:00,
2013-03-21 17:05:00,41.5,16.5,29.54,NNW,339,0.0,9.9,36,0.00,,,0.00,VWS V14.00,2013-03-21 21:05:00,
2013-03-21 17:11:00,41.6,14.7,29.54,NNW,339,0.0,9.9,33,0.00,,,0.00,VWS V14.00,2013-03-21 21:11:00,
2013-03-21 17:17:00,40.6,13.7,29.54,NNW,339,0.0,9.9,33,0.00,,,0.00,VWS V14.00,2013-03-21 21:17:00,
2013-03-21 17:23:00,39.4,13.3,29.54,NNW,339,0.0,9.9,34,0.00,,,0.00,VWS V14.00,2013-03-21 21:23:00,
2013-03-21 17:30:00,38.4,13.4,29.54,NNW,339,0.0,9.9,35,0.00,,,0.00,VWS V14.00,2013-03-21 21:30:00,
2013-03-21 17:36:00,37.5,13.4,29.54,NNW,339,0.0,9.9,37,0.00,,,0.00,VWS V14.00,2013-03-21 21:36:00,
2013-03-21 17:42:00,36.4,13.0,29.54,NNW,335,0.0,9.9,38,0.00,,,0.00,VWS V14.00,2013-03-21 21:42:00,
2013-03-21 17:48:00,35.6,13.2,29.54,NNW,335,0.0,9.9,39,0.00,,,0.00,VWS V14.00,2013-03-21 21:48:00,
2013-03-21 17:54:00,35.1,13.7,29.54,NNW,335,0.0,9.9,41,0.00,,,0.00,VWS V14.00,2013-03-21 21:54:00,
2013-03-21 18:00:00,34.4,13.8,29.55,NNW,335,0.0,9.9,42,0.00,,,0.00,VWS V14.00,2013-03-21 22:00:00,
2013-03-21 18:06:00,34.0,14.2,29.55,NNW,335,0.0,9.9,44,0.00,,,0.00,VWS V14.00,2013-03-21 22:06:00,
2013-03-21 18:12:00,33.8,14.8,29.55,WNW,300,0.0,9.9,45,0.00,,,0.00,VWS V14.00,2013-03-21 22:12:00,
2013-03-21 18:18:00,33.3,15.0,29.55,WNW,300,0.0,9.9,46,0.00,,,0.00,VWS V14.00,2013-03-21 22:18:00,
2013-03-21 18:24:00,33.0,15.2,29.55,WNW,300,0.0,9.9,47,0.00,,,0.00,VWS V14.00,2013-03-21 22:24:00,
2013-03-21 18:30:00,32.5,15.1,29.56,WNW,300,0.0,9.9,48,0.00,,,0.00,VWS V14.00,2013-03-21 22:30:00,
2013-03-21 18:36:00,32.3,15.7,29.56,WNW,300,0.0,9.9,50,0.00,,,0.00,VWS V14.00,2013-03-21 22:36:00,
2013-03-21 18:42:00,32.0,16.4,29.56,WNW,300,0.0,9.9,52,0.00,,,0.00,VWS V14.00,2013-03-21 22:42:00,
2013-03-21 18:48:00,31.6,17.4,29.56,WNW,300,0.0,9.9,55,0.00,,,0.00,VWS V14.00,2013-03-21 22:48:00,
2013-03-21 18:55:00,31.4,18.1,29.56,WNW,300,0.0,9.9,57,0.00,,,0.00,VWS V14.00,2013-03-21 22:55:00,
2013-03-21 19:04:00,31.0,18.2,29.56,WNW,300,0.0,9.9,59,0.00,,,0.00,VWS V14.00,2013-03-21 23:04:00,
2013-03-21 19:10:00,30.9,18.4,29.56,WNW,300,0.0,9.9,59,0.00,,,0.00,VWS V14.00,2013-03-21 23:10:00,
2013-03-21 19:16:00,30.8,18.5,29.56,WNW,300,0.0,9.9,60,0.00,,,0.00,VWS V14.00,2013-03-21 23:16:00,
2013-03-21 19:22:00,30.6,18.5,29.56,WNW,300,0.0,9.9,60,0.00,,,0.00,VWS V14.00,2013-03-21 23:22:00,
2013-03-21 19:28:00,30.3,18.4,29.56,WNW,300,0.0,9.9,61,0.00,,,0.00,VWS V14.00,2013-03-21 23:28:00,
2013-03-21 19:34:00,30.1,18.3,29.56,WNW,300,0.0,9.9,61,0.00,,,0.00,VWS V14.00,2013-03-21 23:34:00,
2013-03-21 19:40:00,29.9,18.4,29.56,WNW,300,0.0,9.9,62,0.00,,,0.00,VWS V14.00,2013-03-21 23:40:00,
2013-03-21 19:47:00,29.7,18.4,29.56,WNW,300,0.0,9.9,62,0.00,,,0.00,VWS V14.00,2013-03-21 23:47:00,
2013-03-21 19:53:00,29.4,18.3,29.56,WNW,300,0.0,9.9,63,0.00,,,0.00,VWS V14.00,2013-03-21 23:53:00,
2013-03-21 19:59:00,29.4,18.5,29.57,WNW,300,0.0,9.9,63,0.00,,,0.00,VWS V14.00,2013-03-21 23:59:00,
2013-03-21 20:05:00,29.4,18.8,29.57,WNW,300,0.0,9.9,64,0.00,,,0.00,VWS V14.00,2013-03-22 00:05:00,
2013-03-21 20:11:00,29.2,19.0,29.57,WNW,300,0.0,9.9,65,0.00,,,0.00,VWS V14.00,2013-03-22 00:11:00,
2013-03-21 20:17:00,29.0,19.1,29.57,WNW,300,0.0,9.9,66,0.00,,,0.00,VWS V14.00,2013-03-22 00:17:00,
2013-03-21 20:23:00,29.1,19.4,29.57,WNW,300,0.0,9.9,67,0.00,,,0.00,VWS V14.00,2013-03-22 00:23:00,
2013-03-21 20:29:00,28.9,19.2,29.57,WNW,300,0.0,9.9,67,0.00,,,0.00,VWS V14.00,2013-03-22 00:29:00,
2013-03-21 20:35:00,29.0,19.4,29.58,WNW,300,0.0,9.9,67,0.00,,,0.00,VWS V14.00,2013-03-22 00:35:00,
2013-03-21 20:41:00,29.0,19.6,29.58,WNW,300,0.0,9.9,68,0.00,,,0.00,VWS V14.00,2013-03-22 00:41:00,
2013-03-21 20:47:00,28.8,19.3,29.58,WNW,300,0.0,9.9,67,0.00,,,0.00,VWS V14.00,2013-03-22 00:47:00,
2013-03-21 20:53:00,28.7,19.2,29.58,WNW,300,0.0,9.9,67,0.00,,,0.00,VWS V14.00,2013-03-22 00:53:00,
2013-03-21 20:59:00,28.4,19.1,29.58,WNW,300,0.0,9.9,68,0.00,,,0.00,VWS V14.00,2013-03-22 00:59:00,
2013-03-21 21:05:00,28.0,18.8,29.58,WNW,300,0.0,9.9,68,0.00,,,0.00,VWS V14.00,2013-03-22 01:05:00,
2013-03-21 21:11:00,27.9,18.7,29.58,WNW,300,0.0,9.9,68,0.00,,,0.00,VWS V14.00,2013-03-22 01:11:00,
2013-03-21 21:17:00,27.6,18.5,29.58,WNW,300,0.0,9.9,68,0.00,,,0.00,VWS V14.00,2013-03-22 01:17:00,
2013-03-21 21:23:00,27.7,18.7,29.58,WNW,300,0.0,9.9,69,0.00,,,0.00,VWS V14.00,2013-03-22 01:23:00,
2013-03-21 21:29:00,27.5,18.6,29.58,WNW,300,0.0,9.9,69,0.00,,,0.00,VWS V14.00,2013-03-22 01:29:00,
2013-03-21 21:35:00,27.3,18.7,29.58,WNW,284,0.0,9.9,70,0.00,,,0.00,VWS V14.00,2013-03-22 01:35:00,
2013-03-21 21:42:00,27.2,18.7,29.58,WNW,284,0.0,9.9,70,0.00,,,0.00,VWS V14.00,2013-03-22 01:42:00,
2013-03-21 21:48:00,27.1,18.7,29.58,WNW,284,0.0,9.9,70,0.00,,,0.00,VWS V14.00,2013-03-22 01:48:00,
2013-03-21 21:54:00,27.1,18.7,29.58,NNW,336,2.9,9.9,70,0.00,,,0.00,VWS V14.00,2013-03-22 01:54:00,
2013-03-21 22:00:00,26.7,18.4,29.58,NNW,336,0.0,9.9,71,0.00,,,0.00,VWS V14.00,2013-03-22 02:00:00,
2013-03-21 22:06:00,26.6,18.6,29.58,NW,309,0.0,9.9,71,0.00,,,0.00,VWS V14.00,2013-03-22 02:06:00,
2013-03-21 22:12:00,26.4,18.8,29.58,WNW,294,0.0,9.9,73,0.00,,,0.00,VWS V14.00,2013-03-22 02:12:00,
2013-03-21 22:18:00,26.1,18.9,29.58,WNW,294,0.0,9.9,74,0.00,,,0.00,VWS V14.00,2013-03-22 02:18:00,
2013-03-21 22:24:00,26.0,19.0,29.58,WNW,294,0.0,9.9,75,0.00,,,0.00,VWS V14.00,2013-03-22 02:24:00,
2013-03-21 22:30:00,25.8,19.2,29.57,WNW,294,0.0,9.9,76,0.00,,,0.00,VWS V14.00,2013-03-22 02:30:00,
2013-03-21 22:36:00,25.6,19.5,29.57,WNW,294,0.0,9.9,77,0.00,,,0.00,VWS V14.00,2013-03-22 02:36:00,
2013-03-21 22:42:00,25.4,19.8,29.57,WNW,294,0.0,9.9,79,0.00,,,0.00,VWS V14.00,2013-03-22 02:42:00,
2013-03-21 22:48:00,25.4,20.2,29.57,WNW,294,0.0,9.9,80,0.00,,,0.00,VWS V14.00,2013-03-22 02:48:00,
2013-03-21 22:55:00,25.3,20.5,29.57,WNW,294,0.0,9.9,82,0.00,,,0.00,VWS V14.00,2013-03-22 02:55:00,
2013-03-21 23:01:00,25.4,21.0,29.57,WNW,294,0.0,9.9,83,0.00,,,0.00,VWS V14.00,2013-03-22 03:01:00,
2013-03-21 23:07:00,25.4,21.5,29.57,WNW,294,0.0,9.9,85,0.00,,,0.00,VWS V14.00,2013-03-22 03:07:00,
2013-03-21 23:13:00,25.6,22.0,29.57,WNW,294,0.0,9.9,86,0.00,,,0.00,VWS V14.00,2013-03-22 03:13:00,
2013-03-21 23:19:00,25.6,22.2,29.57,WNW,294,0.0,9.9,87,0.00,,,0.00,VWS V14.00,2013-03-22 03:19:00,
2013-03-21 23:25:00,25.8,22.6,29.57,WNW,294,0.0,9.9,87,0.00,,,0.00,VWS V14.00,2013-03-22 03:25:00,
2013-03-21 23:34:00,25.7,22.8,29.57,WNW,294,0.0,9.9,88,0.00,,,0.00,VWS V14.00,2013-03-22 03:34:00,
2013-03-21 23:40:00,25.5,22.6,29.57,WNW,294,0.0,9.9,89,0.00,,,0.00,VWS V14.00,2013-03-22 03:40:00,
2013-03-21 23:46:00,25.3,22.4,29.57,WNW,294,0.0,9.9,88,0.00,,,0.00,VWS V14.00,2013-03-22 03:46:00,
2013-03-21 23:52:00,25.4,22.4,29.57,WNW,294,0.0,9.9,88,0.00,,,0.00,VWS V14.00,2013-03-22 03:52:00,
2013-03-21 23:58:00,25.3,22.2,29.57,WNW,294,0.0,9.9,88,0.00,,,0.00,VWS V14.00,2013-03-22 03:58:00,